Weather History for Carlsbad, NM

Change the Weather History Date:

Friday, September 27, 2013

  Actual Average Record
Temperature  
Mean Temperature 76 °F -  
Max Temperature 89 °F 84 °F 101 °F (1953)
Min Temperature 64 °F 54 °F 46 °F (1989)
Cooling Degree Days 12    
Growing Degree Days 26 (Base 50)    
Moisture  
Dew Point 60 °F    
Average Humidity 62    
Maximum Humidity 87    
Minimum Humidity 31    
Precipitation  
Precipitation 0.03 in - - ()
Sea Level Pressure  
Sea Level Pressure 29.66 in    
Wind  
Wind Speed 5 mph (South)    
Max Wind Speed 13 mph    
Max Gust Speed 23 mph    
Visibility 10 miles    
Events Rain    
Averages and records for this station are not official NWS values.
T = Trace of Precipitation, MM = Missing Value Source: NWS Daily Summary

Daily Weather History Graph

Daily Weather History Graph

Search for Another Location

Airport:

Trip Planner

Search our weather history database for the weather conditions in past years. The results will help you decide how hot, cold, wet, or windy it might be!

Date:

Astronomy

Sep. 27, 2013 Rise Set
Actual Time 6:48 AM MDT 6:46 PM MDT
Civil Twilight 6:24 AM MDT 7:11 PM MDT
Nautical Twilight 5:55 AM MDT 7:39 PM MDT
Astronomical Twilight 5:27 AM MDT 8:08 PM MDT
Moon 12:04 AM MDT (9/27) 2:08 PM MDT (9/27)
Length of Visible Light 12h 46m
Length of Day
11h 58m
Last Quarter, 44% of the Moon is Illuminated
Sep 27
Last Quarter
Oct 4
New
Oct 11
First Quarter
Oct 18
Full
Oct 26
Last Quarter

Hourly Weather History & Observations

Time (MDT) Temp. Heat Index Dew Point Humidity Pressure Visibility Wind Dir Wind Speed Gust Speed Precip Events Conditions
12:53 AM 73.0 °F - 59.0 °F 61% 29.64 in 10.0 mi Calm Calm - N/A   Overcast
1:53 AM 72.0 °F - 59.0 °F 64% 29.64 in 10.0 mi SE 8.1 mph - N/A   Partly Cloudy
2:53 AM 66.9 °F - 59.0 °F 76% 29.64 in 10.0 mi South 3.5 mph - N/A   Clear
3:53 AM 66.0 °F - 59.0 °F 78% 29.63 in 10.0 mi South 4.6 mph - N/A   Clear
4:53 AM 64.9 °F - 59.0 °F 81% 29.65 in 10.0 mi SW 3.5 mph - N/A   Mostly Cloudy
5:53 AM 68.0 °F - 60.1 °F 76% 29.67 in 10.0 mi Calm Calm - N/A   Mostly Cloudy
6:53 AM 68.0 °F - 60.1 °F 76% 29.70 in 10.0 mi South 5.8 mph - N/A   Mostly Cloudy
7:53 AM 68.0 °F - 63.0 °F 84% 29.72 in 10.0 mi SSE 5.8 mph - 0.00 in Rain Light Rain
8:53 AM 69.1 °F - 63.0 °F 81% 29.71 in 10.0 mi SE 4.6 mph - 0.03 in   Overcast
9:53 AM 72.0 °F - 63.0 °F 73% 29.71 in 10.0 mi SSE 4.6 mph - N/A   Scattered Clouds
10:53 AM 77.0 °F - 61.0 °F 58% 29.71 in 10.0 mi SSE 6.9 mph - N/A   Scattered Clouds
11:53 AM 81.0 °F 81.6 °F 60.1 °F 49% 29.69 in 10.0 mi South 8.1 mph - N/A   Mostly Cloudy
12:53 PM 84.0 °F 83.8 °F 59.0 °F 43% 29.66 in 10.0 mi South 6.9 mph - N/A   Partly Cloudy
1:53 PM 86.0 °F 84.5 °F 55.0 °F 35% 29.63 in 10.0 mi South 8.1 mph - N/A   Mostly Cloudy
2:53 PM 86.0 °F 84.9 °F 57.0 °F 37% 29.61 in 10.0 mi South 6.9 mph - N/A   Overcast
3:53 PM 89.1 °F 87.1 °F 55.0 °F 31% 29.60 in 10.0 mi SSW 12.7 mph 23.0 mph N/A   Clear
4:53 PM 88.0 °F 86.5 °F 55.9 °F 34% 29.58 in 10.0 mi SW 12.7 mph - N/A   Clear
5:53 PM 86.0 °F 84.9 °F 57.0 °F 37% 29.59 in 10.0 mi SW 9.2 mph - N/A   Clear
6:53 PM 78.1 °F - 61.0 °F 56% 29.61 in 10.0 mi SSW 5.8 mph - N/A   Partly Cloudy
7:53 PM 80.1 °F 81.2 °F 62.1 °F 54% 29.63 in 10.0 mi SE 11.5 mph 20.7 mph N/A   Scattered Clouds
8:53 PM 78.1 °F - 64.0 °F 62% 29.67 in 10.0 mi SE 9.2 mph - N/A   Mostly Cloudy
9:53 PM 73.9 °F - 66.9 °F 79% 29.70 in 10.0 mi South 6.9 mph - N/A   Mostly Cloudy
10:53 PM 72.0 °F - 66.9 °F 84% 29.71 in 10.0 mi South 4.6 mph - N/A   Mostly Cloudy
11:53 PM 70.0 °F - 66.0 °F 87% 29.73 in 10.0 mi WNW 4.6 mph - N/A   Partly Cloudy